Location: Newark
(43.6583°N, 1.6617°E)
Time: 10:14:03
(UTC+00:00)

S-56A Canister/Altair - Visible Passes

Search period start: 26 August 2019 00:00
Search period end: 05 September 2019 00:00
Orbit: 633 x 2499 km, 38.9° (Epoch: 25 August)

Date Brightness Start Highest point End Pass type
(mag) Time Alt. Az. Time Alt. Az. Time Alt. Az.
26 Aug 8.0 19:59:14 10° SW 20:04:14 36° SSE 20:06:09 25° ESE visible
26 Aug 9.7 22:02:59 10° WSW 22:03:35 13° WSW 22:03:35 13° WSW visible
27 Aug 8.2 19:26:24 10° SW 19:31:43 35° SSE 19:35:17 14° ESE visible
27 Aug 8.8 21:30:18 10° WSW 21:32:43 26° WSW 21:32:43 26° WSW visible
28 Aug 7.7 20:57:31 10° WSW 21:01:49 45° SSW 21:01:49 45° SSW visible
29 Aug 7.5 20:24:39 10° WSW 20:30:00 49° S 20:30:52 43° SE visible
30 Aug 7.8 19:51:43 10° WSW 19:57:28 50° S 19:59:54 26° ESE visible
30 Aug 9.6 21:56:13 10° W 21:57:19 16° WSW 21:57:19 16° WSW visible
31 Aug 8.0 19:18:40 10° WSW 19:24:55 50° S 19:28:54 14° ESE visible
31 Aug 8.7 21:23:24 10° W 21:26:20 28° WSW 21:26:20 28° WSW visible
01 Sep 7.9 20:50:30 10° W 20:55:20 43° SSW 20:55:20 43° SSW visible
02 Sep 7.8 20:17:30 10° W 20:23:13 48° S 20:24:19 40° SSE visible
03 Sep 7.9 19:44:24 10° W 19:50:41 52° S 19:53:18 26° SE visible
03 Sep 9.8 21:49:42 10° W 21:50:43 14° WSW 21:50:43 14° WSW visible
04 Sep 8.1 19:11:14 10° W 19:18:07 55° S 19:22:17 15° ESE visible
04 Sep 9.1 21:16:39 10° W 21:19:42 23° SW 21:19:42 23° SW visible
